Regional Weather Roundup
Issued by NWS

Home | Current Version | Previous Version | Graphics & Text | Print | Product List | Glossary On
Versions: 1 2 3 4 5 6 7 8 9 10 11 12 13 14 15 16 17 18 19 20 21 22 23 24 25 26 27 28 29 30 31 32 33 34 35 36 37 38 39 40 41 42 43 44 45 46 47 48 49 50
000
ASUS43 KLMK 282102
RWRKY
KENTUCKY REGIONAL WEATHER ROUNDUP
NATIONAL WEATHER SERVICE LOUISVILLE KY
400 PM EST FRI NOV 28 2014

NOTE "FAIR" INDICATES FEW OR NO CLOUDS BELOW 12,000 FEET
WITH NO SIGNIFICANT WEATHER AND/OR OBSTRUCTIONS TO VISIBILITY.

KYZ001>023-026-027-061>063-070>075-282200-
WESTERN AND SOUTH CENTRAL KENTUCKY

CITY           SKY/WX    TMP DP  RH WIND       PRES   REMARKS
PADUCAH        SUNNY     48  27  44 SW13      30.13F
HENDERSON      SUNNY     45  27  49 S16       30.14F
OWENSBORO      SUNNY     43  28  55 S13G23    30.17F
HOPKINSVILLE   SUNNY     47  24  39 S9        30.19F
BOWLING GREEN  SUNNY     45  19  35 S13       30.23F
GLASGOW        NOT AVBL
$$

KYZ024-025-028>034-038-045-046-053-282200-
NORTH CENTRAL KENTUCKY

CITY           SKY/WX    TMP DP  RH WIND       PRES   REMARKS
LOUISVILLE/SDF MOSUNNY   40  21  46 SE14      30.21F WCI  32
LOUISVILLE/LOU MOSUNNY   38  19  46 S9        30.22F WCI  31
FORT KNOX      SUNNY     39  24  55 SE15      30.18F WCI  31
$$

KYZ035>037-039>044-047>052-055>060-089>105-282200-
NORTHEAST KENTUCKY

CITY           SKY/WX    TMP DP  RH WIND       PRES   REMARKS
LEXINGTON      MOSUNNY   36  17  46 S14       30.23F WCI  27
COVINGTON      PTSUNNY   34  15  46 S14       30.21F WCI  25
FRANKFORT      MOSUNNY   37  18  46 S12       30.22F WCI  29
$$

KYZ054-064>069-076>088-106>120-282200-
SOUTHEAST KENTUCKY

CITY           SKY/WX    TMP DP  RH WIND       PRES   REMARKS
JACKSON        CLOUDY    35  17  47 CALM      30.26S
LONDON         MOSUNNY   38  17  42 S6        30.26F WCI  33
SOMERSET       NOT AVBL
MIDDLESBORO    NOT AVBL
MONTICELLO     CLEAR     44  19  37 S7        30.27F
$$



USA.gov is the U.S. government's official web portal to all federal, state and local government web resources and services.